Tracking 28908 objects as of 21-May-2024
HD Live streaming from Space Station
objects crossing your sky now

STARLINK-6228

Track STARLINK-6228 now!
10-day predictions
STARLINK-6228 is classified as:


NORAD ID: 56543
Int'l Code: 2023-065AS
Perigee: 565.3 km
Apogee: 567.0 km
Inclination: 43.0 °
Period: 95.8 minutes
Semi major axis: 6937 km
RCS: Unknown
Launch date: May 14, 2023
Source: United States (US)
Launch site: AIR FORCE EASTERN TEST RANGE (AFETR)
Your satellite tracking list
Your tracking list is empty




NASA's NSSDC Master Catalog

Two Line Element Set (TLE):
1 56543U 23065AS  24141.60898890  .00023963  00000-0  17814-2 0  9995
2 56543  43.0017 199.0718 0001241 283.8431  76.2273 15.02567487 56702
Source of the keplerian elements: AFSPC